{"data":{"norad_id":63001,"intl_designator":"2025-031W","name":"STARLINK-32437","alt_names":[],"object_type":"PAYLOAD","status":"ACTIVE","operator":null,"country":"US","launch_date":"2025-02-11","launch_site_code":"AFETR","launch_vehicle":null,"mission":null,"orbit_class":"UNKNOWN","rcs_meters":null,"size_class":null,"mass_kg":null,"dimensions":null,"purposes":["comms"],"wikipedia_slug":null,"has_3d_model":false,"image_url":null,"decayed_at":null,"tle_current":{"epoch":"2026-09-20T18:14:27.437856Z","epoch_age_seconds":143137,"freshness":"FRESH","line1":"1 63001U 25031W   26263.76003979  .00016404  00000+0  60410-3 0  9999","line2":"2 63001  42.9995 122.1167 0000896 271.8497  88.2252 15.27591686 90928","mean_motion":15.27591686,"eccentricity":8.96e-5,"inclination_deg":42.9995,"raan_deg":122.1167,"arg_perigee_deg":271.8497,"mean_anomaly_deg":88.2252,"bstar":0.0006041,"rev_number":9092,"period_min":94.266027577738,"perigee_km":482.39934503578,"apogee_km":483.62886331364,"semimajor_km":6861.1511041747,"source":"CELESTRAK","updated_at":"2026-09-22T09:00:49.720665Z"}}}